Location: Peach Mountain Observatory
(42.3967°N, 83.9367°W)
Time: 09:52:00
(UTC-04:00)

deb Explorer IX - Pass Details

Date: 22 January 2020
Orbit: 547 x 1100 km, 38.8° (Epoch: 06 April)

Event Time Altitude Azimuth Distance (km) Brightness Sun altitude
Rises 22:15:06 0° 217° (SW) 3,770 - -50.7°
Reaches altitude 10° 22:18:04 10° 207° (SSW) 2,874 - -51.2°
Maximum altitude 22:24:04 30° 149° (SSE) 1,852 - -52.2°
Drops below altitude 10° 22:30:12 10° 92° (E) 2,944 - -53.2°
Sets 22:33:17 0° 82° (E) 3,876 - -53.7°
